Location: Misciano
(43.5000°N, 11.9500°E)
Time: 07:35:55
(UTC+00:00)

ARGOS - Pass Details

Date: 13 August 2020
Orbit: 820 x 834 km, 98.5° (Epoch: 26 September)

Event Time Altitude Azimuth Distance (km) Brightness Sun altitude
Rises 18:41:09 0° 168° (SSE) 3,355 6.0 -4.7°
Reaches altitude 10° 18:43:30 10° 170° (S) 2,424 5.3 -5.1°
Maximum altitude 18:48:53 79° 256° (WSW) 847 3.4 -6.0°
Drops below altitude 10° 18:54:17 10° 344° (NNW) 2,432 6.3 -6.8°
Sets 18:56:38 0° 346° (NNW) 3,368 7.0 -7.2°
